Home > Weather > Nizwa > Past weeks

Flag for Oman Weather for the Past 2 Weeks in Nizwa, Oman

Now
66 °F

Passing clouds.


Feels Like: 66 °F
Forecast: 45 / 76 °F
Wind: 2 mph from North

Location: International Airport

Current Time: Feb 14, 2016 at 4:39:03 AM

Latest Report: Feb 14, 2016 at 3:50 AM


Visibility: N/A

Pressure: 30.01 "Hg (28.23 "Hg at 522m altitude)

Humidity: 60%

Dew point: 52 °F

Location of NizwaLocation

Historic Weather in Nizwa — Graph

°F

Nizwa Temperature Yesterday

Maximum temperature yesterday: 75 °F (at 12:50 PM)
Minimum temperature yesterday: 68 °F (at 12:50 AM)
Average temperature yesterday: 71 °F

High & Low Weather Summary for the Past Weeks

 TemperatureHumidityPressure
High81 °F (Feb 9, 10:50 AM)78% (Feb 4, 3:50 AM)30.24 "Hg (Feb 4, 3:50 AM)
Low57 °F (Feb 7, 2:50 AM)22% (Feb 7, 10:50 AM)29.89 "Hg (Feb 11, 2:50 PM)
Average70 °F53%30.05 "Hg
* Reported Jan 30 2:50 AM — Feb 14 2:50 AM, Nizwa, Weather by CustomWeather, © 2016

Note: Actual official high and low records may vary slightly from our data, if they occured in-between our weather recording intervals... More about our weather records

Advertising

Nizwa Weather History for the Previous 24 Hours

 ConditionsComfort  
Time TempWeatherWind HumidityBarometerVisibility
2:50 AM
Sun, Feb 14
66 °FPassing clouds.3 mph60%30.01 "HgN/A
1:50 AM68 °FClear.6 mph56%30.04 "Hg10 mi
12:50 AM66 °FClear.6 mph60%30.04 "Hg10 mi
11:50 PM
Sat, Feb 13
68 °FPassing clouds.3 mph56%30.04 "HgN/A
10:50 PM68 °FClear.2 mph56%30.07 "Hg10 mi
9:50 PM70 °FClear.2 mph57%30.07 "Hg10 mi
8:50 PM70 °FClear.3 mph53%30.07 "Hg10 mi
7:50 PM72 °FPassing clouds.5 mph50%30.07 "HgN/A
6:50 PM72 °FPassing clouds.6 mph50%30.04 "HgN/A
5:50 PM73 °FScattered clouds.7 mph47%30.04 "HgN/A
4:50 PM73 °FScattered clouds.8 mph47%30.01 "HgN/A
3:50 PM75 °FPassing clouds.9 mph47%30.01 "HgN/A
2:50 PM75 °FScattered clouds.13 mph54%30.01 "HgN/A
1:50 PM75 °FPassing clouds.12 mph54%30.04 "HgN/A
12:50 PM75 °FPassing clouds.9 mph50%30.04 "HgN/A
11:50 AM73 °FScattered clouds.10 mph53%30.07 "HgN/A
10:50 AM73 °FScattered clouds.8 mph50%30.09 "HgN/A
9:50 AM73 °FScattered clouds.10 mph53%30.09 "HgN/A
8:50 AM70 °FPartly sunny.9 mph60%30.07 "HgN/A
7:50 AM70 °FPartly sunny.10 mph60%30.07 "HgN/A
6:50 AM68 °FBroken clouds.9 mph64%30.04 "HgN/A
5:50 AM68 °FPassing clouds.10 mph64%30.01 "HgN/A
4:50 AM68 °FClear.7 mph64%30.01 "Hg10 mi
Weather by CustomWeather, © 2016

See weather overviewHow to use our weather pages